This is the latest recevied weather packets stored in our database for station/object WP3OF-2. If no packets are shown the sender has not sent any weather packets the latest 10 day(s).
| Time | Temp. | Humidity | Pressure | Rain* | Wind** | Luminosity | Snow |
|---|---|---|---|---|---|---|---|
| 1777924240 | 22.78° C | 88% | 1024.9 hPa | 0 mm | - | 157 W/m² | - |
| 1777923937 | 22.22° C | 88% | 1024.9 hPa | 0 mm | - | 181 W/m² | - |
| 1777923632 | 22.22° C | 90% | 1024.9 hPa | 0 mm | - | 647 W/m² | - |
| 1777923329 | 22.22° C | 88% | 1024.9 hPa | 0 mm | - | 186 W/m² | - |
| 1777923028 | 22.22° C | 89% | 1024.9 hPa | 0 mm | - | 700 W/m² | - |
| 1777922726 | 22.78° C | 88% | 1025.2 hPa | 0 mm | - | 186 W/m² | - |
| 1777922424 | 22.22° C | 88% | 1025.2 hPa | 0 mm | - | 527 W/m² | - |
| 1777922121 | 22.78° C | 87% | 1024.9 hPa | 0 mm | - | 779 W/m² | - |
| 1777921817 | 22.78° C | 88% | 1024.9 hPa | 0 mm | - | 853 W/m² | - |
| 1777921513 | 22.22° C | 89% | 1024.9 hPa | 0 mm | - | 657 W/m² | - |
| 1777921209 | 22.22° C | 88% | 1024.9 hPa | 0 mm | - | 788 W/m² | - |
| 1777920907 | 22.22° C | 86% | 1024.9 hPa | 0 mm | - | 189 W/m² | - |
| 1777920603 | 22.22° C | 86% | 1024.9 hPa | 0 mm | - | 623 W/m² | - |
| 1777920298 | 22.78° C | 85% | 1025.2 hPa | 0 mm | - | 171 W/m² | - |
| 1777919994 | 22.78° C | 85% | 1025.2 hPa | 0 mm | - | 590 W/m² | - |
| 1777919692 | 23.33° C | 85% | 1025.2 hPa | 0 mm | - | 250 W/m² | - |
| 1777919390 | 22.78° C | 85% | 1025.6 hPa | 0 mm | - | 663 W/m² | - |
| 1777919086 | 22.78° C | 85% | 1025.2 hPa | 0 mm | - | 167 W/m² | - |
| 1777918784 | 22.78° C | 84% | 1025.6 hPa | 0 mm | - | 787 W/m² | - |
| 1777918480 | 22.78° C | 84% | 1025.6 hPa | 0 mm | - | 881 W/m² | - |
| 1777918179 | 22.78° C | 85% | 1025.6 hPa | 0 mm | - | 229 W/m² | - |
| 1777917878 | 23.33° C | 83% | 1025.6 hPa | 0 mm | - | 918 W/m² | - |
| 1777917575 | 23.33° C | 83% | 1025.6 hPa | 0 mm | - | 544 W/m² | - |
| 1777917272 | 23.33° C | 82% | 1025.6 hPa | 0 mm | - | 870 W/m² | - |
| 1777916970 | 22.78° C | 82% | 1026 hPa | 0 mm | - | 218 W/m² | - |
* Rain latest hour (hover to see other rain measurements)
** Current wind speed in m/s (hover to see current wind gust speed)